Location: Newark
(34.0131°N, 4.3314°W)
Time: 23:10:08
(UTC+00:00)

Transit 2A Rocket - Pass Details

Date: 27 October 2019
Orbit: 594 x 909 km, 66.7° (Epoch: 22 November)

Event Time Altitude Azimuth Distance (km) Brightness Sun altitude
Rises 03:32:06 0° 220° (SW) 3,250 - -37.8°
Reaches altitude 10° 03:34:41 10° 226° (SW) 2,272 - -37.3°
Maximum altitude 03:39:38 46° 299° (WNW) 951 - -36.2°
Drops below altitude 10° 03:44:11 10° 13° (NNE) 2,091 - -35.3°
Exits shadow 03:45:09 - 16° (NNE) 2,453 7.9 -35.1°
Sets 03:46:29 0° 20° (NNE) 2,964 8.4 -34.8°
